Regional Weather Roundup
Issued by NWS Burlington, VT

Home | Current Version | Previous Version | Text Only | Print | Product List | Glossary On
Versions: 1 2 3 4 5 6 7 8 9 10 11 12 13 14 15 16 17 18 19 20 21 22 23 24 25 26 27 28 29 30 31 32 33 34 35 36 37 38 39 40 41 42 43 44 45 46 47 48 49 50
000
ASUS41 KBTV 040330
RWRBTV
VERMONT REGIONAL WEATHER ROUNDUP
NATIONAL WEATHER SERVICE BURLINGTON VT
1100 PM EDT THU SEP 03 2015

NOTE: "FAIR" INDICATES FEW OR NO CLOUDS BELOW 12,000 FEET WITH NO
SIGNIFICANT WEATHER AND/OR OBSTRUCTIONS TO VISIBILITY.

* THESE REPORTS ARE NOT UNDER NWS QUALITY CONTROL AND/OR DO NOT
  REPORT WEATHER SUCH AS PRECIPITATION AND FOG.

VTZ001>019-040400-
_____VERMONT_____


CITY           SKY/WX    TMP DP  RH WIND       PRES   REMARKS
BURLINGTON     CLEAR     59  55  87 SE6       29.99S
MONTPELIER     CLEAR     59  54  83 CALM      30.07R
MORRISVILLE    CLEAR     57  53  86 CALM      30.04R
ST. JOHNSBURY*   N/A     62  56  80 MISG      30.00R
LYNDONVILLE*   FAIR      61  51  69 CALM      30.05S
MIDDLEBURY*    FAIR      61  60  97 CALM      30.00R
RUTLAND*       PTCLDY    68  19  15 CALM      30.00R
SPRINGFIELD    CLEAR     68  66  93 NW3       29.98R
HIGHGATE*      FAIR      54  52  92 E3        30.01S
NEWPORT*       FAIR      55  52  89 CALM      30.04R
BENNINGTON     CLEAR     69  66  90 CALM      29.96S
SUTTON*          N/A     57 N/A N/A MISG        N/A
GALLUP MILLS*    N/A     52 N/A N/A MISG        N/A
MT. MANSFIELD*   N/A     54 N/A N/A SE6         N/A

_____LAKE CHAMPLAIN_____


CITY           SKY/WX    TMP DP  RH WIND       PRES   REMARKS
COLCHESTER RF*   N/A     72  57  60 N10         N/A
DIAMOND ISL*     N/A     72  59  64 NW14        N/A

$$

NYZ007-026>031-035-052-083-040400-
_____NORTHERN NEW YORK_____


CITY           SKY/WX    TMP DP  RH WIND       PRES   REMARKS
PLATTSBURGH    CLEAR     64  54  69 NW6       30.00S
SARANAC LAKE   CLEAR     59  57  93 NE5       30.04S
MASSENA        MOCLDY    62  60  93 CALM      30.01R
OGDENSBURG*    CLEAR     63  61  94 CALM      30.00R FOG
POTSDAM*       PTCLDY    63  63 100 CALM      30.01R FOG
STARK FALLS*     N/A     68 N/A N/A E1          N/A
WATERTOWN      CLEAR     63  62  97 E6        29.97S FOG
FT DRUM        CLEAR     68  65  88 SE1       29.99R
ALBANY         PTCLDY    72  65  78 N5        29.95R
GLENS FALLS    PTCLDY    71  58  63 N8        29.97R

$$
NHZ002-005-011-040400-
_____NEW HAMPSHIRE_____


CITY           SKY/WX    TMP DP  RH WIND       PRES   REMARKS
LEBANON        CLEAR     67  64  90 CALM      29.98R FOG
KEENE          PTCLDY    70  63  78 CALM      29.96R
MT WASHINGTON  PTCLDY    52  48  87 SE9         N/A
PLYMOUTH       FAIR      67  62  83 CALM      29.97R
WHITEFIELD     CLEAR     57  54  89 CALM      30.03R

$$

_____REGIONAL QUEBEC LOCATIONS_____


CITY           SKY/WX    TMP DP  RH WIND       PRES   REMARKS
MONTREAL       CLEAR     66  48  52 NE10G17   30.02R
QUEBEC CITY    CLEAR     59  50  72 N3        30.05R
SHERBROOKE     CLEAR     54  52  94 SE2       30.03R

_____REGIONAL ONTARIO LOCATIONS_____


CITY           SKY/WX    TMP DP  RH WIND       PRES   REMARKS
OTTAWA         CLEAR     68  57  68 N7        30.02R

______KEY______
VSB  - VISIBILITY IN MILES
WCI  - WIND CHILL INDEX
HX   - HEAT INDEX
$$
NNNN


USA.gov is the U.S. government's official web portal to all federal, state and local government web resources and services.